Flag Weather past 2 weeks in Saskatoon, Saskatchewan, Canada

Now
46 °F

Broken clouds.


Feels Like: 40 °F
Forecast: N/A
Wind: 16 mph from South

Location: Saskatoon Weather Station

Current Time: Oct 31, 2014 at 4:19:46 PM

Latest Report: Oct 31, 2014 at 4:00 PM


Visibility: 15 mi

Pressure: 29.83 "Hg

Humidity: 62%

Dew point: 34 °F

Location of SaskatoonLocation

Historic Weather in Saskatoon — Graph

°F

Saskatoon temperature yesterday

Maximum temperature yesterday: 32 °F (at 12:00 AM)
Minimum temperature yesterday: 28 °F (at 5:00 AM)
Average temperature yesterday: 30 °F

Past Weeks' High & Low Weather Summary

 TemperatureHumidityPressure
High75 °F (Oct 20, 4:00 PM)100% (Oct 16, 11:00 PM)30.59 "Hg (Oct 16, 11:00 PM)
Low23 °F (Oct 25, 7:00 AM)27% (Oct 20, 4:00 PM)29.46 "Hg (Oct 26, 2:00 PM)
Average42 °F76%29.92 "Hg
* Reported Oct 16 3:00 PM — Oct 31 3:00 PM, Saskatoon, Weather by CustomWeather, © 2014

Note: Actual official high and low records may vary slightly from our data, if they occured in-between our weather recording intervals... More about our weather records

Advertising

Saskatoon weather history for previous 24 hours

 ConditionsComfort  
Time TempWeatherWind HumidityBarometerVisibility
3:00 PM
Oct 31
46 °FBroken clouds.20 mph62%29.85 "Hg15 mi
2:00 PM45 °FBroken clouds.24 mph61%29.89 "Hg15 mi
1:00 PM45 °FBroken clouds.18 mph61%29.93 "Hg15 mi
12:00 PM41 °FQuite cool.22 mph66%29.96 "Hg15 mi
11:00 AM39 °FBroken clouds.17 mph70%29.99 "Hg15 mi
10:00 AM36 °FMostly cloudy.18 mph75%30.03 "Hg15 mi
9:00 AM34 °FMore clouds than sun.18 mph81%30.06 "Hg15 mi
8:00 AM34 °FOvercast.17 mph81%30.07 "Hg15 mi
7:00 AM34 °FOvercast.24 mph81%30.11 "Hg15 mi
6:00 AM32 °FPassing clouds.18 mph87%30.16 "Hg15 mi
5:00 AM34 °FMostly cloudy.18 mph81%30.19 "Hg15 mi
4:00 AM32 °FMostly cloudy.17 mph87%30.23 "Hg15 mi
3:00 AM32 °FOvercast.20 mph87%30.27 "Hg15 mi
2:00 AM32 °FOvercast.22 mph80%30.32 "Hg15 mi
1:00 AM30 °FOvercast.20 mph86%30.36 "Hg15 mi
12:00 AM30 °FPassing clouds.16 mph80%30.39 "Hg15 mi
11:00 PM
Oct 30
28 °FPassing clouds.15 mph86%30.42 "Hg15 mi
10:00 PM28 °FPassing clouds.15 mph86%30.45 "Hg15 mi
9:00 PM28 °FOvercast.16 mph86%30.47 "Hg15 mi
8:00 PM30 °FOvercast.15 mph80%30.50 "Hg15 mi
7:00 PM30 °FOvercast.17 mph80%30.54 "Hg15 mi
6:45 PM30 °FOvercast.17 mph80%30.53 "Hg15 mi
6:00 PM30 °FOvercast.13 mph80%30.54 "Hg15 mi
5:00 PM30 °FPartly sunny.12 mph80%30.55 "Hg15 mi
4:00 PM32 °FPartly sunny.16 mph75%30.55 "Hg15 mi
Weather by CustomWeather, © 2014

See weather overviewHow to use our weather pages